Вернуться в каталог

DELTA 4 DEB

LostHEO
NORAD 40649·DEBRIS·🇺🇸 United States

Запущен Mar 25, 2015 с Cape Canaveral Space Force Station

Loading…

Ближайшие Пролёты (ближайшие 24 часа)

TLE

УстаревшееSource: Space-Track

Эпоха: Dec 14, 2025, 12:55 UTC

1 40649U 15013F   25348.53860298  .00000036  00000-0  00000-0 0  9995
2 40649  52.1718 194.2023 5581562 169.2273 211.1710  3.87530405  4396

Отслеживайте DELTA 4 DEB в реальном времени с AllMySat

Download on the App Store